All Starts

As of 12.14.17

Mario Gutierrez

Add To
Virtual Stable
Back to Profile

All Starts in Thoroughbred Races

Track Date Race Race Type Purse Horse Name Finish Chart Video
SA 01/05/2012 6 Claiming $16,000 Panther's Claw 9
SA 01/06/2012 3 Maiden Claiming $19,000 Coparcenary 1
SA 01/06/2012 8 Maiden Claiming $23,000 Thief River 8
SA 01/07/2012 1 Maiden Claiming $23,000 Ansede 2
SA 01/07/2012 4 Claiming $16,000 Takethemoneyandrun 1
SA 01/07/2012 6 Maiden Special Weight $56,000 Declan 9
SA 01/12/2012 4 Maiden Claiming $19,000 Sunshine High 6
SA 01/12/2012 5 Claiming $26,000 Warrens Wild Thing 2
SA 01/12/2012 6 Allowance Optional Claiming $60,000 Commander 2
SA 01/13/2012 2 Allowance Optional Claiming $58,000 My Kentucky Rose 5
SA 01/13/2012 3 Claiming $21,000 Tactician 6
SA 01/13/2012 7 Allowance Optional Claiming $60,000 Summer Song 9
SA 01/13/2012 8 Maiden Claiming $19,000 Steel Trick 10
SA 01/15/2012 3 Claiming $35,000 Avulsion 4
SA 01/16/2012 7 Maiden Special Weight $56,000 Baron Von Awesome 10
SA 01/19/2012 1 Claiming $15,000 Shem 5
SA 01/19/2012 4 Starter Allowance $30,000 Warrens Temptation 4
SA 01/19/2012 5 Maiden Special Weight $56,000 Warren's My Queen 4
SA 01/19/2012 6 Claiming $23,000 For You My Heart 8
SA 01/20/2012 2 Maiden Claiming $19,000 Siberian Ruble 10
SA 01/20/2012 5 Claiming $17,000 Raising Memo 9
SA 01/21/2012 1 Claiming $21,000 Mr. Collaborator 6
SA 01/21/2012 7 Claiming $17,000 Coloursoftheglen (IRE) 2
SA 01/22/2012 1 Claiming $35,000 Silver Street 6
SA 01/22/2012 6 Claiming $26,000 Taylor Said 2
SA 01/26/2012 3 Maiden Claiming $23,000 Lullaby Moon 9
SA 01/26/2012 7 Allowance Optional Claiming $58,000 Summer Song 4
SA 01/27/2012 8 Maiden Claiming $23,000 Burr Tango 8
SA 01/28/2012 1 Allowance Optional Claiming $60,000 Commander 5
SA 01/28/2012 10 Maiden Special Weight $56,000 Galitzianer 12
SA 01/29/2012 9 Claiming $16,000 Coparcenary 2
SA 02/02/2012 3 Allowance Optional Claiming $58,000 My Kentucky Rose 6
SA 02/02/2012 5 Claiming $17,000 Craspedia 7
SA 02/02/2012 8 Maiden Claiming $23,000 King Bill 6
SA 02/03/2012 8 Claiming $19,000 Dunscombe 3
SA 02/04/2012 6 Robert B. Lewis Stakes (Gr. 2) $200,000 I'll Have Another 1
SA 02/04/2012 9 Claiming $32,000 Avulsion 2
SA 02/05/2012 3 Starter Allowance $30,000 Comic Baby 8
SA 02/05/2012 4 Maiden Special Weight $56,000 Raggin Wood 8
SA 02/05/2012 5 Starter Stakes $28,000 Outlaw Kelly 9
SA 02/09/2012 5 Maiden Claiming $19,000 Sunshine High 1
SA 02/10/2012 8 Maiden Claiming $23,000 Burr Tango 6
SA 02/11/2012 4 Claiming $17,000 Coloursoftheglen (IRE) 4
SA 02/12/2012 3 Maiden Claiming $19,000 Torre Italiana 2
SA 02/16/2012 3 Claiming $26,000 Takethemoneyandrun 7
SA 02/16/2012 6 Maiden Special Weight $56,000 Cat's Enough 3
SA 02/17/2012 3 Maiden Claiming $23,000 Mel and Al 5
SA 02/17/2012 5 Maiden Claiming $19,000 Maybe Tuesday 8
SA 02/18/2012 3 Maiden Claiming $19,000 Kumite 2
SA 02/18/2012 6 Maiden Special Weight $56,000 Dynamic Diva 6
SA 02/18/2012 8 Santa Maria Stakes (Gr. 2) $200,000 Miss Mittagong 2
SA 02/18/2012 10 Claiming $26,000 Short Memo 8
SA 02/19/2012 5 Allowance Optional Claiming $60,000 Summer Song 7
SA 02/20/2012 5 Claiming $16,000 Coparcenary 2
SA 02/20/2012 9 Maiden Claiming $23,000 Love Sir Paul 5
SA 02/23/2012 2 Claiming $40,000 Plenny of Henny 1
SA 02/23/2012 6 Claiming $16,000 Sunshine High 7
SA 02/23/2012 7 Claiming $45,000 Let's Do It 6
TUP 02/25/2012 6 Arizona Oaks $35,000 My Kentucky Rose 3
TUP 02/25/2012 8 Turf Paradise Derby $75,000 Taylors Deal 1
SA 03/01/2012 3 Claiming $28,000 Tiz a Bud Girl 2
SA 03/01/2012 8 Maiden Claiming $23,000 Sunland Vintage 1
SA 03/02/2012 6 Maiden Claiming $23,000 Call Me Jones 3
SA 03/03/2012 2 Maiden Special Weight $56,000 Cat's Enough 7
SA 03/03/2012 7 Allowance Optional Claiming $58,000 High Level Jeff 7
SA 03/03/2012 11 Santa Anita Handicap (Gr. 1) $750,000 Boxeur des Rues 6
SA 03/04/2012 9 Maiden Claiming $23,000 Clutch 11
SA 03/08/2012 1 Maiden Claiming $23,000 Ms. Sweet Freedom 6
SA 03/09/2012 8 Claiming $26,000 Blake 3
SA 03/11/2012 5 Claiming $17,000 Raingear 7
SA 03/15/2012 8 Claiming $16,000 Coparcenary 1
SA 03/16/2012 3 Maiden Special Weight $56,000 Unex Dali (GB) 6
SA 03/16/2012 8 Maiden Claiming $19,000 Torre Italiana 5
SA 03/17/2012 5 Maiden Special Weight $56,000 Craqui 4
SA 03/17/2012 6 Maiden Claiming $23,000 Call Me Jones 1
SA 03/17/2012 8 Santa Margarita Invitational Stakes (Gr. 1) $300,000 Miss Mittagong 3
SA 03/17/2012 9 Maiden Claiming $23,000 King Roar 7
SA 03/18/2012 5 Claiming $26,000 Geniality 7
SA 03/22/2012 1 Claiming $17,000 Warren's Mystery 6
SA 03/22/2012 4 Maiden Special Weight $56,000 Dynamic Diva 6
SA 03/22/2012 5 Claiming $32,000 Format V. 5
SA 03/22/2012 8 Maiden Claiming $23,000 La Sancha 2
SA 03/23/2012 5 Claiming $40,000 Victor's Magic 10
SA 03/23/2012 7 Pasadena Stakes $70,000 Captain Obvious (IRE) 5
SA 03/23/2012 8 Maiden Claiming $23,000 Confectionary 5
SA 03/24/2012 3 Maiden Claiming $23,000 Mel and Al 8
SA 03/24/2012 4 Claiming $19,000 Takethemoneyandrun 8
SA 03/24/2012 6 Allowance Optional Claiming $58,000 Gnarly Dude 3
SA 03/25/2012 3 Claiming $23,000 Hammurabi 4
SA 03/25/2012 7 Santa Ana Stakes (Gr. 2) $150,000 Strawberrydaiquiri (GB) 8
SA 03/25/2012 8 Starter Allowance $30,000 Private Bounty 4
SA 03/25/2012 9 Maiden Claiming $19,000 Father Pabst 3
SA 03/30/2012 6 Maiden Claiming $19,000 Kumite 1
SA 03/31/2012 3 Claiming $26,000 Blake 2
SA 03/31/2012 5 Allowance Optional Claiming $58,000 He Flies a Banner 5
SA 03/31/2012 9 Claiming $32,000 Imperial Pride 9
SA 04/01/2012 3 Maiden Claiming $35,000 Hello Frankie 7
SA 04/01/2012 4 Allowance Optional Claiming $58,000 La Mano Nera 4
SA 04/01/2012 9 Maiden Special Weight $56,000 Night Wind 5
SA 04/05/2012 4 Maiden Special Weight $56,000 Sweet Results 3
SA 04/06/2012 3 Claiming $35,000 Tiz a Bud Girl 7
SA 04/06/2012 5 Claiming $40,000 Shediak (FR) 5
SA 04/07/2012 4 Maiden Special Weight $56,000 Shiver Ye Timbers 8
SA 04/07/2012 6 Santa Anita Derby (Gr. 1) $750,000 I'll Have Another 1
SA 04/07/2012 11 Maiden Claiming $23,000 Galitzianer 2
SA 04/12/2012 5 Maiden Claiming $35,000 Craqui 2
SA 04/12/2012 6 Claiming $19,000 Coparcenary 4
SA 04/14/2012 3 Claiming $16,000 Private Bounty 4
SA 04/14/2012 4 Starter Allowance $30,000 Blake 3
SA 04/14/2012 7 Allowance Optional Claiming $58,000 Melissa Rose 2
SA 04/15/2012 1 Claiming $17,000 Queenie Marini 2
SA 04/15/2012 5 Maiden Claiming $35,000 Dynamic Diva 4
SA 04/15/2012 8 Allowance $65,000 Hidden Passion 2
SA 04/19/2012 4 Claiming $26,000 Warren's Kong 5
SA 04/20/2012 2 Claiming $50,000 Lasso From El Paso 5
SA 04/20/2012 7 La Puente Stakes $75,000 Captain Obvious (IRE) 4
SA 04/20/2012 8 Maiden Claiming $23,000 Ramona's Ride 10
SA 04/21/2012 2 Claiming $26,000 Arcodoro 5
SA 04/21/2012 3 Maiden Special Weight $56,000 Sing And Swing (GB) 9
SA 04/21/2012 6 Maiden Special Weight $56,000 Northern Iowa 3
SA 04/21/2012 7 Claiming $32,000 Back At You 9
SA 04/21/2012 8 Allowance Optional Claiming $58,000 Bet On Victor 1
SA 04/21/2012 10 Maiden Claiming $19,000 Father Pabst 1
SA 04/22/2012 7 Allowance Optional Claiming $60,000 Shediak (FR) 8
BHP 04/26/2012 2 Maiden Claiming $20,000 Silver Gun Girl 2
BHP 04/26/2012 6 Maiden Claiming $20,000 Torre Italiana 6
BHP 04/26/2012 7 Harry Henson Stakes $70,000 Senor Rain 2
BHP 04/26/2012 8 Maiden Special Weight $52,000 Tangled Rock 8
BHP 04/27/2012 1 Claiming $18,000 Coloursoftheglen (IRE) 3
BHP 04/27/2012 2 Maiden Claiming $20,000 Truly a Mist 5
GG 04/28/2012 2 Maiden Claiming $13,300 Jay's Firetruck 4
GG 04/28/2012 7 San Francisco Mile Stakes (Gr. 3) $150,000 Calimonco 4
BHP 04/29/2012 1 Maiden Special Weight $52,000 Last Diamond 6
BHP 04/29/2012 5 Maiden Special Weight $52,000 Fleet Eagle 7
BHP 04/29/2012 8 Wilshire Handicap (Gr. 3) $100,000 Quiet Oasis (IRE) 1
CD 05/04/2012 2 Maiden Special Weight $53,000 Unex Dali (GB) 2
CD 05/04/2012 8 Edgewood Stakes $150,000 Koko Loca (IRE) 6
CD 05/05/2012 4 Allowance Optional Claiming $60,600 Cook Inlet 8
CD 05/05/2012 10 Woodford Reserve Turf Classic Stakes (Gr. 1) $500,000 Boxeur des Rues 10
CD 05/05/2012 11 Kentucky Derby Presented by Yum! Brands (Gr. 1) $2,000,000 I'll Have Another 1
BHP 05/11/2012 1 Claiming $26,000 Blake 1
BHP 05/11/2012 2 Claiming $30,000 Bellini Bliss (IRE) 5
BHP 05/11/2012 7 Allowance $54,000 Warrens Wild Thing 6
BHP 05/12/2012 4 Maiden Claiming $20,000 Torre Italiana 2
BHP 05/12/2012 6 Maiden Special Weight $52,000 Northern Iowa 4
BHP 05/12/2012 9 Maiden Claiming $20,000 Silver Gun Girl 7
PIM 05/17/2012 2 Claiming $15,500 My Name Is Ralphie 1
PIM 05/17/2012 8 Maiden Special Weight $33,000 Ten Plush 1
PIM 05/19/2012 3 Gallorette Handicap (Gr. 3) $150,000 Camelia Rose (FR) 6
PIM 05/19/2012 11 Dixie Stakes (Gr. 2) $300,000 Boxeur des Rues 10
PIM 05/19/2012 12 Preakness Stakes (Gr. 1) $1,000,000 I'll Have Another 1
BHP 05/20/2012 2 Maiden Special Weight $52,000 Swiss Peak 3
BHP 05/20/2012 5 Maiden Claiming $23,000 Chocolate Delight 6
BHP 05/20/2012 6 Allowance $54,000 Romantic Wish (GB) 2
BHP 05/20/2012 7 Maiden Claiming $32,000 Silent Bidder 7
BHP 05/24/2012 3 Claiming $40,000 Warren's Got Game 5
BHP 05/24/2012 4 Maiden Claiming $20,000 Stupendus Princess 2
BHP 05/24/2012 6 Allowance $54,000 Memphis 4
BHP 05/25/2012 4 Claiming $40,000 Luckarack 2
BHP 05/26/2012 1 Claiming $18,000 Coloursoftheglen (IRE) 1
BHP 05/26/2012 2 Maiden Special Weight $52,000 Cinco de Mario 4
BHP 05/26/2012 4 Maiden Claiming $23,000 Midnight Con 3
BHP 05/26/2012 6 Allowance $54,000 Sammy's a Runnin' 5
BHP 05/26/2012 7 Maiden Special Weight $52,000 Dancingtothestars 3
BHP 05/27/2012 1 Claiming $33,000 Freewayracer 6
BHP 05/27/2012 9 Claiming $21,000 Double Jack 10
BHP 05/28/2012 6 Claiming $21,000 Father Pabst 8
BHP 05/28/2012 7 Maiden Special Weight $52,000 Jules Journey 9
BHP 05/28/2012 8 Los Angeles Handicap (Gr. 3) $100,000 Dancing in Silks 7
BHP 05/28/2012 9 Gamely Stakes (Gr. 1) $250,000 Quiet Oasis (IRE) 2
BHP 05/28/2012 10 Maiden Claiming $20,000 Demonsterous 1
BEL 06/08/2012 2 Maiden Special Weight $70,000 Lignite 2
BEL 06/08/2012 3 Maiden Special Weight $70,000 Amber Coast 6
BEL 06/08/2012 5 Maiden Claiming $32,000 Shy Humor 2
BEL 06/08/2012 10 Brooklyn Handicap (Gr. 2) $200,000 Boxeur des Rues 7
BEL 06/09/2012 2 Maiden Special Weight $75,000 Last Cat 8
BEL 06/09/2012 6 Easy Goer Stakes $100,000 Politicallycorrect 3
BEL 06/09/2012 9 Woody Stephens Stakes (Gr. 2) $400,000 Brian 10
BHP 06/14/2012 1 Maiden Special Weight $50,000 Papa G. T. 4
BHP 06/14/2012 2 Claiming $17,000 Dancing At Dark 6
BHP 06/14/2012 4 Claiming $17,000 Film Fortune 5
BHP 06/14/2012 8 Maiden Claiming $29,000 A Thousand Aces 9
BHP 06/15/2012 4 Claiming $17,000 Coloursoftheglen (IRE) 8
BHP 06/15/2012 5 Allowance Optional Claiming $52,000 Grasp 9
BHP 06/15/2012 6 Claiming $20,000 Father Pabst 6
BHP 06/15/2012 7 Allowance Optional Claiming $55,000 Bet On Victor 5
BHP 06/16/2012 1 Claiming $29,000 Finality Philly 4
BHP 06/16/2012 5 Claiming $29,000 Vadertore 2
BHP 06/16/2012 6 Maiden Special Weight $50,000 Rahy's Reflection 11
BHP 06/16/2012 9 Vanity Handicap (Gr. 1) $250,000 Atlantic Swing 5
BHP 06/16/2012 10 Maiden Claiming $19,000 Sing And Swing (GB) 3
BHP 06/17/2012 4 Maiden Special Weight $50,000 Silent Ride 5
BHP 06/17/2012 8 Allowance $52,000 Unex Dali (GB) 2
BHP 06/21/2012 1 Claiming $20,000 What's for Dinner 4
BHP 06/21/2012 3 Maiden Claiming $29,000 Tangled Rock 5
BHP 06/22/2012 3 Maiden Special Weight $50,000 Dancingtothestars 1
BHP 06/22/2012 4 Maiden Special Weight $50,000 Midnight Con 9
BHP 06/22/2012 7 Tsunami Slew Stakes $68,000 Tones (IRE) 6
BHP 06/23/2012 2 Maiden Claiming $19,000 Stupendus Princess 5
BHP 06/23/2012 7 Maiden Special Weight $50,000 Tina's Express 10
BHP 06/24/2012 6 Maiden Special Weight $50,000 Stormy Randie 6
BHP 06/24/2012 9 Maiden Special Weight $50,000 Tribal Rain 7
BHP 06/28/2012 5 Starter Allowance $35,000 Galitzianer 5
BHP 06/28/2012 6 Allowance Optional Claiming $55,000 Michael the Man 7
BHP 06/28/2012 7 Allowance Optional Claiming $52,000 Doyouseemecoming 4
BHP 06/29/2012 3 Maiden Claiming $19,000 I Feel Free 2
BHP 06/29/2012 5 Maiden Special Weight $50,000 Warren's My Queen 8
BHP 06/29/2012 7 Claiming $32,000 Jairzihno (GB) 4
CT 06/30/2012 9 Wild and Wonderful Stakes $100,000 Hurricane Ike 3
CT 06/30/2012 10 Red Legend Stakes $400,000 Innocent Man 8
BHP 07/01/2012 6 Maiden Special Weight $50,000 Cinco de Mario 11
BHP 07/01/2012 9 Maiden Special Weight $50,000 Joe Doggs 12
HST 07/02/2012 4 Chris Loseth Handicap $50,000 Devil in Disguise 1
HST 07/02/2012 8 Lieutenant Governors' Handicap $50,000 St Liams Halo 4
BHP 07/06/2012 8 Maiden Claiming $19,000 Torre Italiana 6
BHP 07/07/2012 8 Royal Heroine Mile Stakes (Gr. 2) $150,000 Quiet Oasis (IRE) 1
BHP 07/08/2012 4 Claiming $20,000 Double Jack 5
BHP 07/08/2012 5 Starter Allowance $35,000 Metaxa 3
BHP 07/08/2012 8 Allowance Optional Claiming $55,000 Mensa Heat 3
BHP 07/08/2012 9 Maiden Special Weight $50,000 Mo's Teresa 9
BHP 07/12/2012 1 Claiming $17,000 Film Fortune 3
BHP 07/12/2012 4 Maiden Claiming $22,000 Et Tu Walker 1
EMD 07/15/2012 3 Maiden Claiming $6,725 Starlight Gem 1
EMD 07/15/2012 5 Claiming $4,725 Mel and Al 7
EMD 07/15/2012 6 Seattle Slew Handicap $50,000 Edge Forward 3
EMD 07/15/2012 8 Kent Handicap $50,000 Regal Betty 3
EMD 07/15/2012 9 Claiming $5,975 Genuine Gem 7
NP 07/21/2012 5 Claiming $6,800 Vision of Roses 2
NP 07/21/2012 9 Spangled Jimmy Handicap $50,000 Commander 1
EMD 07/22/2012 7 Claiming $12,700 Maltese Pins 3
EMD 07/22/2012 8 Mt. Rainier Handicap $50,000 St Liams Halo 2
EMD 07/22/2012 9 Allowance Optional Claiming $18,900 Lady Dakota 4
EMD 07/22/2012 10 Claiming $5,675 Whos Calling Now 1
DMR 07/28/2012 5 Allowance $71,000 Unex Dali (GB) 8
DMR 07/28/2012 6 Fleet Treat Stakes $200,000 River Kiss 6
DMR 07/28/2012 7 Allowance Optional Claiming $71,000 Koko Loca (IRE) 3
MTH 07/29/2012 13 Haskell Invitational Stakes (Gr. 1) $1,000,000 Handsome Mike 4
NP 08/04/2012 8 Count Lathum Handicap $50,000 Devil in Disguise 1
NP 08/06/2012 7 Madamoiselle Handicap $50,000 Overvalued 2
NP 08/06/2012 8 Don Fleming Handicap $50,000 Commander 1
EMD 08/11/2012 8 Washington Oaks $65,000 Regal Betty 8
AP 08/18/2012 7 American St. Leger Stakes $400,000 Lumberyard Jack 7
AP 08/18/2012 8 Secretariat Stakes (Gr. 1) $500,000 Handsome Mike 4
EMD 08/19/2012 5 Claiming $14,800 Seminole Brave 2
EMD 08/19/2012 8 Longacres Mile Handicap (Gr. 3) $200,000 Taylor Said 1
EMD 08/19/2012 9 Claiming $17,950 Newfound Gold 2
NP 08/25/2012 11 Westerner Handicap $50,000 Commander 1
NP 08/25/2012 12 Canadian Derby (Gr. 3) $200,000 Devil in Disguise 3
HST 08/29/2012 5 Claiming $11,800 Mr. Instigator 1
HST 08/31/2012 3 Maiden Claiming $11,800 Hampton Court 1
HST 08/31/2012 4 Maiden Claiming $18,300 Monahee 2
HST 08/31/2012 6 Maiden Optional Claiming $26,800 Go for Guinness 3
HST 08/31/2012 7 Claiming $22,100 Dashing Daisy 2
DMR 09/02/2012 6 Maiden Special Weight $70,000 Hume 9
DMR 09/02/2012 7 Adoration Stakes $85,000 Miss Mittagong 7
DMR 09/03/2012 5 Maiden Special Weight $70,000 Star Rocker 3
DMR 09/03/2012 9 Yellow Ribbon Handicap (Gr. 2) $250,000 Camelia Rose (FR) 5
DMR 09/03/2012 10 Maiden Special Weight $70,000 Puff Pastry 5
HST 09/08/2012 6 Claiming $11,800 Mr. Collaborator 6
HST 09/08/2012 7 Maiden Optional Claiming $26,800 Rockin Cherokee 2
HST 09/09/2012 2 S. W. Randall Plate Handicap $50,000 St Liams Halo 3
HST 09/09/2012 3 Claiming $11,800 Hampton Court 10
HST 09/09/2012 4 Jack Diamond Futurity $100,000 Go for Guinness 8
HST 09/09/2012 5 British Columbia Oaks $100,000 Evelyn's Dancer 1
HST 09/09/2012 8 Delta Colleen Handicap $50,000 Castinette Dancer 7
HST 09/09/2012 9 British Columbia Derby (Gr. 3) $200,000 Taylors Deal 4
HST 09/09/2012 10 Sadie Diamond Futurity $100,000 Willamette 3
HST 09/15/2012 2 Claiming $22,100 Silly Fella 2
HST 09/15/2012 4 Claiming $22,100 Princess Zaida 5
HST 09/15/2012 7 Allowance $22,425 Double It 5
HST 09/15/2012 8 Claiming $13,500 Peace Bear 5
HST 09/16/2012 6 Claiming $13,800 Holy Kuga 2
HST 09/22/2012 1 Claiming $12,100 Silver Street 1
HST 09/22/2012 3 Maiden Claiming $14,800 Revster 1
HST 09/22/2012 4 Claiming $11,800 Perfect Light 4
HST 09/22/2012 5 Claiming $14,600 Minstrel's Time 11
HST 09/22/2012 7 Allowance $22,125 Scamming 7
HST 09/22/2012 8 Maiden Claiming $11,800 Buffalo Babe 2
HST 09/23/2012 3 Claiming $14,600 Golden Roar 3
HST 09/23/2012 5 Maiden Optional Claiming $26,500 S R Rocketman 9
HST 09/23/2012 6 Claiming $14,100 Finally Kruisin 6
HST 09/23/2012 7 Claiming $18,300 Bold Pretense 1
SA 09/28/2012 8 Eddie D Stakes (Gr. 3) $100,000 Boxeur des Rues 6
SA 09/29/2012 1 Maiden Special Weight $47,000 Cinco de Mario 7
SA 09/29/2012 2 Maiden Claiming $19,000 Stormin Arvin 9
SA 09/29/2012 5 Claiming $22,000 Unex Dali (GB) 10
SA 09/29/2012 6 Chandelier Stakes (Gr. 1) $250,000 Wittgenstein (IRE) 7
SA 09/29/2012 8 Zenyatta Stakes (Gr. 1) $250,000 Miss Mittagong 9
SA 09/29/2012 9 Rodeo Drive Stakes (Gr. 1) $250,000 Camelia Rose (FR) 4
SA 09/30/2012 2 Maiden Special Weight $47,000 Puff Pastry 6
SA 09/30/2012 7 Claiming $35,000 Posse Power 5
SA 09/30/2012 10 Maiden Claiming $26,000 Bipartisan 4
SA 10/04/2012 7 Claiming $32,000 Sweet Baguette 5
SA 10/05/2012 5 Maiden Special Weight $47,000 Centerville 8
SA 10/05/2012 8 Maiden Claiming $19,000 Malibu Bullet 4
KEE 10/06/2012 8 Dixiana Breeders' Futurity (Gr. 1) $400,000 He's Had Enough 11
SA 10/07/2012 1 Maiden Special Weight $47,000 Hume 7
SA 10/07/2012 6 Claiming $25,000 Lady Rochelle 5
HST 10/08/2012 3 Claiming $15,050 El Ciervo 2
HST 10/08/2012 4 Ballerina Stakes (Gr. 3) $100,000 Evelyn's Dancer 2
HST 10/08/2012 7 Maiden Optional Claiming $26,800 Rockin Cherokee 3
HST 10/08/2012 8 BC Premier's Handicap (Gr. 3) $100,000 Commander 1
SA 10/11/2012 3 Maiden Claiming $29,000 Duke Street King 4
SA 10/13/2012 2 Maiden Special Weight $50,000 City State 4
SA 10/13/2012 5 Bob Benoit California Cup Juvenile Stakes $250,000 Star Rocker 3
SA 10/13/2012 8 John Deere California Cup Distaff Stakes $100,000 Cayanna 3
HST 10/14/2012 5 Claiming $11,800 Holy Kuga 5
HST 10/14/2012 6 Claiming $18,300 Princess Zaida 4
HST 10/14/2012 7 Fantasy Stakes $75,000 Innocent Love 1
HST 10/14/2012 9 Ascot Graduation Stakes $75,000 Glenco Kid 1
SA 10/18/2012 4 Claiming $32,000 Ella Bea Awesome 6
SA 10/18/2012 6 Claiming $18,000 Big Bad Jim 7
SA 10/18/2012 7 Starter Allowance $28,000 Around the Twig 8
SA 10/18/2012 8 Maiden Claiming $23,000 Greeley Awesome 2
SA 10/19/2012 4 Maiden Claiming $23,000 Song of a Witch 5
SA 10/19/2012 7 Allowance Optional Claiming $53,000 Camelia Rose (FR) 3
SA 10/20/2012 2 Maiden Special Weight $47,000 Wittgenstein (IRE) 1
SA 10/20/2012 3 Maiden Special Weight $47,000 Colburn 5
SA 10/20/2012 4 Claiming $30,000 Lanida 1
SA 10/20/2012 8 Senator Ken Maddy Stakes (Gr. 3) $100,000 Miss Mittagong 8
SA 10/20/2012 9 Maiden Claiming $19,000 I Feel Free 4
SA 10/21/2012 4 Claiming $32,000 Mr. Make Believe 5
SA 10/21/2012 8 Allowance $50,000 Captain Obvious (IRE) 4
SA 10/25/2012 4 Maiden Claiming $29,000 Bipartisan 2
SA 10/25/2012 5 Claiming $16,000 Warren's Passion 3
SA 10/25/2012 7 Allowance Optional Claiming $53,000 St Liams Halo 7
SA 10/26/2012 6 Allowance Optional Claiming $50,000 Tizpat 8
SA 10/26/2012 7 Starter Allowance $28,000 Sweet Baguette 4
SA 10/27/2012 5 Maiden Claiming $19,000 Axle 2
SA 10/27/2012 7 Claiming $16,000 Tiz a Brite Miss 12
SA 10/28/2012 1 Maiden Special Weight $47,000 Bas 5
SA 10/28/2012 5 Maiden Claiming $23,000 Magic Tiz 6
SA 10/28/2012 9 Maiden Claiming $23,000 Prime Issue 8
SA 11/01/2012 6 Claiming $16,000 Unex Dali (GB) 12
SA 11/02/2012 3 Allowance $70,000 Basmati 1
SA 11/02/2012 5 Breeders' Cup Marathon (Gr. 2) $500,000 Commander 9
SA 11/02/2012 10 Twilight Derby (Gr. 2) $150,000 Hoist 9
SA 11/03/2012 6 Breeders' Cup Dirt Mile (Gr. 1) $1,000,000 Second City 9
SA 11/03/2012 8 Grey Goose Breeders' Cup Juvenile (Gr. 1) $2,000,000 He's Had Enough 2
SA 11/03/2012 10 Xpressbet Breeders' Cup Sprint (Gr. 1) $1,500,000 Boxeur des Rues 13
SA 11/03/2012 12 Breeders' Cup Classic (Gr. 1) $5,000,000 Handsome Mike 9
SA 11/04/2012 2 Allowance Optional Claiming $50,000 Smil'n From Above 10
SA 11/04/2012 6 Allowance $50,000 Starship Flare 9
SA 11/04/2012 9 Claiming $16,000 Big Bad Jim 9
SA 11/04/2012 10 Maiden Special Weight $47,000 Cinco de Mario 2
BHP 11/08/2012 4 Maiden Claiming $27,000 Agent Scully 7
BHP 11/08/2012 8 Maiden Special Weight $45,000 Lady Now 2
BHP 11/09/2012 5 Maiden Special Weight $45,000 Blazing Dancer 7
BHP 11/09/2012 6 Claiming $42,000 Chu and I 9
BHP 11/10/2012 1 Claiming $30,000 Include the Baby 6
BHP 11/10/2012 3 Real Quiet Stakes $100,000 Glenco Kid 5
BHP 11/10/2012 4 Claiming $16,000 Fire in the Wind 5
BHP 11/10/2012 5 Claiming $30,000 Mr. Make Believe 3
BHP 11/10/2012 9 Maiden Special Weight $45,000 Derringer 6
BHP 11/11/2012 1 Claiming $30,000 The Gang and I 2
BHP 11/11/2012 2 Claiming $16,000 Midnight Con 4
BHP 11/11/2012 3 Maiden Special Weight $45,000 Star Rocker 3
BHP 11/11/2012 8 Sharp Cat Stakes $100,000 Wittgenstein (IRE) 5
BHP 11/11/2012 9 Maiden Claiming $18,000 Malibu Bullet 8
DED 11/17/2012 7 Delta Downs Jackpot Stakes (Gr. 3) $1,000,000 Know More 8
BHP 11/18/2012 3 Cat's Cradle Handicap $75,000 Cayanna 2
BHP 11/18/2012 5 Maiden Special Weight $45,000 Persuasive Paul 3
BHP 11/18/2012 7 Maiden Claiming $27,000 Greeley Awesome 3
BHP 11/18/2012 9 Maiden Claiming $18,000 Stormin Arvin 8
BHP 11/22/2012 2 Maiden Claiming $25,000 Lady Comic 6
BHP 11/22/2012 4 Claiming $42,000 Lady Hokulea 7
BHP 11/24/2012 3 Claiming $37,000 Lanida 4
BHP 11/24/2012 4 Maiden Special Weight $45,000 Bipartisan 4
BHP 11/24/2012 6 Maiden Claiming $18,000 Axle 1
BHP 11/24/2012 8 Allowance $48,000 Dancingtothestars 1
BHP 11/24/2012 10 Claiming $18,000 Rio Good 9
BHP 11/25/2012 1 Claiming $18,000 Two Feathers 5
BHP 11/25/2012 7 Maiden Special Weight $45,000 Cinco de Mario 3
BHP 11/25/2012 9 Hollywood Derby (Gr. 1) $250,000 Handsome Mike 10
BHP 11/25/2012 10 Maiden Claiming $22,000 Warren's Fantasy 5
BHP 11/29/2012 1 Maiden Claiming $22,000 Sense of a Woman 1
BHP 11/29/2012 8 Maiden Claiming $30,000 Joeandbetty'sbaby 4
BHP 11/30/2012 1 Maiden Claiming $25,000 Greeley Awesome 1
BHP 12/01/2012 2 Maiden Special Weight $45,000 Epistemology 6
BHP 12/01/2012 6 Claiming $16,000 Fire in the Wind 1
BHP 12/01/2012 10 Maiden Claiming $18,000 Rockin Cherokee 1
BHP 12/02/2012 1 Maiden Claiming $25,000 Centerville 4
BHP 12/02/2012 7 Maiden Claiming $22,000 Tricky Shane 7
BHP 12/06/2012 1 Allowance Optional Claiming $48,000 Meringue Pie (GB) 4
BHP 12/06/2012 5 Claiming $34,000 Chu and I 6
BHP 12/06/2012 8 Maiden Special Weight $45,000 John's War 6
BHP 12/07/2012 2 Maiden Claiming $22,000 Bio Pro 2
BHP 12/07/2012 8 Claiming $25,000 Mr. Make Believe 1
BHP 12/08/2012 1 Claiming $18,000 Fire in the Wind 2
BHP 12/08/2012 2 Maiden Claiming $18,000 Unsinkable Sam 10
BHP 12/08/2012 10 Maiden Special Weight $45,000 Hume 11
BHP 12/09/2012 2 Maiden Claiming $22,000 Tiz Anna 3
BHP 12/09/2012 7 Maiden Special Weight $45,000 Puff Pastry 4
BHP 12/13/2012 1 Maiden Special Weight $45,000 Persuasive Paul 3
BHP 12/14/2012 7 Allowance Optional Claiming $52,000 Cayanna 7
BHP 12/15/2012 1 Claiming $34,000 Briteness 3
BHP 12/15/2012 3 Allowance Optional Claiming $48,000 Take a Yard 7
BHP 12/15/2012 6 Claiming $18,000 Axle 2
BHP 12/15/2012 9 CashCall Futurity (Gr. 1) $750,000 He's Had Enough 5
BHP 12/15/2012 10 Maiden Claiming $18,000 Green Team 4
BHP 12/16/2012 3 Maiden Special Weight $45,000 Cinco de Mario 6
BHP 12/16/2012 4 Claiming $18,000 Swift Storm 9
BHP 12/16/2012 8 Allowance Optional Claiming $48,000 Riveting Reason 6
BHP 12/16/2012 10 Claiming $24,000 Real Dream 10
SA 12/26/2012 2 Claiming $32,000 Smoken Legacy 5
SA 12/26/2012 3 Maiden Claiming $19,000 Cold Bay 11
SA 12/26/2012 6 Maiden Special Weight $56,000 On the Fence 9
SA 12/26/2012 7 Starter Allowance $30,000 Rockin Cherokee 5
SA 12/26/2012 8 Malibu Stakes (Gr. 1) $300,000 Basmati 9
SA 12/28/2012 1 Claiming $32,000 Cariboo Road 2
SA 12/28/2012 3 Claiming $17,000 Juan's Twin 6
SA 12/28/2012 4 Claiming $35,000 My Kentucky Rose 10
SA 12/28/2012 6 Claiming $16,000 Warrens Temptation 8
SA 12/28/2012 8 Allowance $58,000 Know More 6
SA 12/28/2012 9 Maiden Claiming $23,000 Hume 7
SA 12/29/2012 4 Maiden Special Weight $56,000 Puff Pastry 2
SA 12/29/2012 9 Claiming $17,000 Honour Family 2
SA 12/30/2012 4 Allowance Optional Claiming $60,000 Dancingtothestars 1
SA 12/30/2012 7 Claiming $21,000 Fire in the Wind 2
SA 12/30/2012 8 Robert J Frankel Stakes (Gr. 3) $150,000 Camelia Rose (FR) 6
SA 12/31/2012 2 Maiden Claiming $27,000 Too Five n' Ten 2
SA 12/31/2012 7 Claiming $17,000 Musical Grace 4
SA 12/31/2012 8 Allowance Optional Claiming $58,000 Ghost of a Chance 4
SA 12/31/2012 9 Maiden Special Weight $56,000 Star Rocker 3